Miscellaneous Local Product
Issued by NWS Hastings, NE

Home | Current Version | Previous Version | Text Only | Print | Product List | Glossary On
Versions: 1 2 3 4 5 6 7 8 9 10 11 12 13 14 15 16 17 18 19 20 21 22 23 24 25 26 27 28 29 30 31 32 33 34 35 36 37 38 39 40 41 42 43 44 45 46 47 48 49 50
000
AXUS43 KGID 171402
MISGRI

GID CWA HOURLY WEATHER ROUNDUP
NATIONAL WEATHER SERVICE HASTINGS NE
900 AM CDT THU APR 17 2014

NOTE: "FAIR" INDICATES FEW OR NO CLOUDS BELOW 12,000 FEET WITH NO
SIGNIFICANT WEATHER AND/OR OBSTRUCTIONS TO VISIBILITY.

...SOUTH CENTRAL NEBRASKA...

CITY           SKY/WX    TMP DP  RH WIND       PRES   REMARKS
GRAND ISLAND   CLOUDY    33  24  69 N13       30.31R WCI  24
HASTINGS       CLOUDY    32  24  72 N12       30.30R WCI  23
KEARNEY        CLOUDY    30  25  80 N12       30.31R WCI  21
ORD            MOSUNNY   31  22  69 NE7       30.31R WCI  24
YORK           PTSUNNY   32  25  74 N12G18    30.31R WCI  23
AURORA         CLOUDY    33  26  75 N12       30.31R WCI  24
LEXINGTON      CLOUDY    30  25  79 NE6       30.31R WCI  24
HOLDREGE       CLOUDY    31  25  77 NE9       30.29S WCI  23
HEBRON         CLOUDY    34  26  72 N8        30.33R WCI  27

...NEBRASKA PANHANDLE...

CITY           SKY/WX    TMP DP  RH WIND       PRES   REMARKS
CHADRON        PTSUNNY   35  30  82 S9        30.16R WCI  28
ALLIANCE       CLOUDY    33  28  81 SE14      30.16S WCI  23
SCOTTSBLUFF    CLOUDY    34  30  85 SE9       30.16R WCI  27
SIDNEY         FOG       32  30  92 S13       30.17R VSB 1/4 WCI  22

...WESTERN AND NORTH CENTRAL NEBRASKA...

CITY           SKY/WX    TMP DP  RH WIND       PRES   REMARKS
VALENTINE      MOSUNNY   29  23  78 SE3       30.26S
AINSWORTH      SUNNY     30  24  78 NE3       30.27S
ONEILL         SUNNY     32  23  70 N10       30.30S WCI  23
BROKEN BOW     CLOUDY    31  23  72 N7        30.28R WCI  24
IMPERIAL       CLOUDY    31  27  85 E6        30.24R FOG     WCI  25
NORTH PLATTE   CLOUDY    30  23  75 NE3       30.27R
MCCOOK         CLOUDY    31  25  78 E7        30.29R WCI  24

...EASTERN NEBRASKA...

CITY           SKY/WX    TMP DP  RH WIND       PRES   REMARKS
NORFOLK        SUNNY     32  22  66 N13       30.31R WCI  22
SO SIOUX CITY  CLOUDY    32  24  72 NW13      30.32R WCI  22
TEKAMAH        CLOUDY    34  23  64 NW12      30.32R WCI  25
COLUMBUS       PTSUNNY   34  21  60 N10       30.32S WCI  26
ALBION         SUNNY     32  23  69 NE8       30.31R WCI  25
OMAHA EPPLEY   CLOUDY    33  24  69 NW17      30.32R WCI  22
OFFUTT AFB     CLOUDY    34  26  74 N12       30.30R WCI  25
MILLARD        CLOUDY    32  25  73 NW10      30.31R WCI  24
LINCOLN        CLOUDY    35  23  61 N15       30.32R WCI  25
NEBRASKA CITY  CLOUDY    33  26  76 N12       30.30R WCI  24
BEATRICE       CLOUDY    34  25  69 N8        30.33R WCI  27
FALLS CITY     CLOUDY    36  28  73 N8        30.31R WCI  30

...NORTHERN KANSAS...

CITY           SKY/WX    TMP DP  RH WIND       PRES   REMARKS
GOODLAND       CLOUDY    31  29  92 E5        30.24R FOG     WCI  26
HILL CITY      CLOUDY    34  26  72 E7        30.30R WCI  28
PHILLIPSBURG   CLOUDY    34  25  69 N6        30.32R WCI  29
SMITH CENTER   CLOUDY    32  25  74 N7        30.31R WCI  26
BELOIT         CLOUDY    36  27  69 N10       30.31S WCI  28
HAYS           CLOUDY    34  25  69 NE9       30.30R WCI  26
RUSSELL        CLOUDY    34  26  72 NE10      30.28R WCI  26
CONCORDIA      CLOUDY    34  26  72 N8        30.31R WCI  27
SALINA         CLOUDY    37  26  64 N15       30.31R WCI  28
TOPEKA         CLOUDY    39  29  67 N13       30.30R WCI  31



USA.gov is the U.S. government's official web portal to all federal, state and local government web resources and services.